Wind_Speed
25 23 22 21 19 17 14 13 12 15 14 15 15 14 15 16 15 18 15 16 17 17
24 23 21 19 17 13 11 12 14 12 14 16 16 16 14 15 15 17 18 20 18 17
22 21 18 16 14 13 13 11 13 14 17 16 17 15 13 14 16 17 21 19 17 15
24 22 18 18 16 12 11 16 15 16 18 18 19 17 15 16 18 21 20 21 16 11
24 23 20 18 15 12 13 13 15 19 20 20 20 16 16 21 23 21 18 17 14 15
25 23 20 17 14 14 13 13 16 18 19 21 19 14 17 22 22 19 18 17 16 17
25 21 17 15 16 15 13 12 12 16 22 22 17 14 18 22 20 19 21 19 22 23
23 17 14 18 19 16 11 12 12 19 19 20 19 20 20 21 21 18 20 22 22 21
20 18 22 23 19 10 8 6 15 18 23 21 22 20 20 20 20 19 19 21 21 20
23 25 28 24 18 9 9 16 17 23 23 19 21 22 20 20 19 21 20 22 21 21
28 30 26 21 11 8 11 14 23 24 19 22 23 22 20 19 21 21 23 22 21 22
22 18 6 4 12 13 9 20 22 22 24 24 25 21 19 21 22 23 23 21 19 21
12 4 7 18 16 10 18 20 22 23 22 18 18 18 19 21 21 21 22 20 19 20
13 17 23 6 13 17 19 20 21 22 20 20 20 20 21 22 22 22 21 20 19 20
Wind_Direction
213 210 207 214 223 242 259 275 286 293 300 314 318 316 305 303 305 309 307 305 308 304
205 211 219 229 242 251 269 287 290 303 313 320 317 316 313 306 310 308 308 312 299 301
217 220 230 241 257 267 281 289 301 319 324 324 317 307 307 316 307 298 306 305 297 291
231 232 242 255 255 263 287 295 313 319 325 326 322 308 311 307 313 303 296 297 304 276
233 236 245 250 253 271 279 299 314 315 322 320 321 304 299 299 304 307 291 294 296 291
229 236 246 249 263 263 276 289 297 305 310 311 305 298 298 296 305 300 292 288 293 290
231 239 248 248 239 246 254 282 292 302 303 303 299 292 295 292 298 297 290 286 298 301
233 241 230 223 226 233 251 289 309 302 304 297 294 291 294 288 292 290 286 288 293 297
227 222 216 217 211 208 227 292 294 296 295 290 292 287 295 286 285 289 287 284 295 296
219 216 200 201 208 226 294 302 292 287 291 293 289 293 292 285 281 290 292 290 295 299
202 194 198 207 217 307 302 285 279 288 290 291 290 291 289 273 285 288 287 287 294 298
185 186 172 1 330 290 276 274 286 288 286 285 285 289 287 286 288 287 282 285 293 303
136 116 322 312 292 266 272 290 292 293 289 282 287 287 286 292 292 291 288 285 289 302
252 299 293 286 267 283 295 292 293 289 283 274 277 281 286 289 288 287 281 279 287 298
Height
1544 1546 1547 1549 1550 1549 1549 1548 1547 1544 1545 1543 1540 1538 1537 1535 1534 1532 1530 1529 1528 1527
1543 1545 1546 1547 1546 1545 1546 1544 1543 1542 1541 1539 1537 1535 1534 1533 1532 1531 1529 1527 1525 1523
1539 1541 1542 1542 1542 1542 1541 1541 1540 1538 1537 1536 1534 1532 1531 1529 1528 1527 1525 1523 1522 1520
1533 1535 1536 1536 1536 1537 1537 1538 1537 1534 1533 1533 1531 1529 1528 1528 1526 1524 1521 1518 1516 1516
1527 1529 1530 1530 1530 1531 1532 1532 1532 1530 1530 1529 1528 1526 1525 1523 1522 1521 1518 1515 1513 1512
1521 1522 1523 1524 1525 1525 1527 1528 1528 1527 1526 1524 1522 1521 1521 1520 1518 1516 1516 1514 1512 1509
1516 1517 1518 1519 1520 1521 1522 1522 1522 1523 1522 1520 1519 1517 1516 1515 1514 1513 1511 1510 1508 1506
1511 1513 1514 1515 1516 1517 1517 1517 1518 1517 1516 1515 1514 1514 1512 1511 1509 1509 1507 1506 1504 1502
1507 1508 1509 1510 1511 1511 1511 1513 1514 1513 1511 1510 1509 1509 1507 1506 1505 1504 1502 1501 1499 1497
1501 1502 1502 1502 1502 1504 1507 1510 1510 1509 1506 1505 1504 1503 1502 1501 1499 1498 1496 1495 1493 1491
1495 1495 1494 1494 1495 1500 1504 1505 1504 1502 1500 1499 1498 1498 1496 1495 1494 1492 1491 1489 1487 1485
1495 1494 1497 1496 1495 1496 1498 1499 1498 1496 1494 1493 1491 1491 1491 1491 1489 1487 1486 1484 1482 1480
1492 1493 1494 1494 1494 1495 1492 1493 1491 1489 1487 1486 1486 1486 1486 1485 1483 1482 1480 1479 1477 1475
1493 1493 1492 1492 1492 1491 1488 1487 1486 1483 1481 1480 1480 1480 1479 1478 1477 1476 1474 1473 1471 1469